Time,TemperatureF,DewpointF,PressureIn,WindDirection,WindDirectionDegrees,WindSpeedMPH,WindSpeedGustMPH,Humidity,HourlyPrecipIn,Conditions,Clouds,dailyrainin,SolarRadiationWatts/m^2,SoftwareType,DateUTC
2013-03-17 00:00:00,66.5,46.8,29.94,SW,233,4.0,6.0,49,0.00,,---,0.00,0.00,VWS V14.01,2013-03-17 04:00:00,
2013-03-17 00:01:00,66.5,46.8,29.94,SW,219,5.0,6.0,49,0.00,,---,0.00,0.00,VWS V14.01,2013-03-17 04:01:00,
2013-03-17 00:02:00,66.5,46.8,29.94,SW,229,4.0,5.0,49,0.00,,---,0.00,0.00,VWS V14.01,2013-03-17 04:02:00,
2013-03-17 00:03:00,66.4,46.7,29.94,SW,230,4.0,6.0,49,0.00,,---,0.00,0.00,VWS V14.01,2013-03-17 04:03:00,
2013-03-17 00:08:00,66.3,46.6,29.94,SW,225,4.0,8.0,49,0.00,,---,0.00,0.00,VWS V14.01,2013-03-17 04:08:00,
2013-03-17 00:13:00,66.3,46.6,29.94,SW,232,5.0,6.0,49,0.00,,---,0.00,0.00,VWS V14.01,2013-03-17 04:13:00,
2013-03-17 00:19:00,66.2,46.5,29.94,WSW,239,4.0,4.0,49,0.00,,---,0.00,0.00,VWS V14.01,2013-03-17 04:19:00,
2013-03-17 00:24:00,66.1,46.4,29.94,SW,229,2.0,7.0,49,0.00,,---,0.00,0.00,VWS V14.01,2013-03-17 04:24:00,
2013-03-17 00:29:00,65.9,46.8,29.94,SW,236,5.0,6.0,50,0.00,,---,0.00,0.00,VWS V14.01,2013-03-17 04:29:00,
2013-03-17 00:34:00,65.8,46.7,29.94,WSW,237,4.0,7.0,50,0.00,,---,0.00,0.00,VWS V14.01,2013-03-17 04:34:00,
2013-03-17 00:39:00,65.6,46.5,29.95,SW,234,6.0,8.0,50,0.00,,---,0.00,0.00,VWS V14.01,2013-03-17 04:39:00,
2013-03-17 00:45:00,65.5,46.4,29.95,SW,228,4.0,7.0,50,0.00,,---,0.00,0.00,VWS V14.01,2013-03-17 04:45:00,
2013-03-17 00:50:00,65.3,46.7,29.95,WSW,238,4.0,8.0,51,0.00,,---,0.00,0.00,VWS V14.01,2013-03-17 04:50:00,
2013-03-17 00:55:00,65.2,46.6,29.95,SW,233,2.0,7.0,51,0.00,,---,0.00,0.00,VWS V14.01,2013-03-17 04:55:00,
2013-03-17 01:00:00,65.0,46.5,29.95,WSW,238,3.0,5.0,51,0.00,,---,0.00,0.00,VWS V14.01,2013-03-17 05:00:00,
2013-03-17 01:05:00,64.8,46.8,29.95,WSW,244,4.0,6.0,52,0.00,,---,0.00,0.00,VWS V14.01,2013-03-17 05:05:00,
2013-03-17 01:10:00,64.6,46.6,29.95,WSW,243,9.0,9.0,52,0.00,,---,0.00,0.00,VWS V14.01,2013-03-17 05:10:00,
2013-03-17 01:15:00,64.5,47.0,29.95,WSW,241,4.0,8.0,53,0.00,,---,0.00,0.00,VWS V14.01,2013-03-17 05:15:00,
2013-03-17 01:21:00,64.3,46.8,29.95,WSW,243,3.0,6.0,53,0.00,,---,0.00,0.00,VWS V14.01,2013-03-17 05:21:00,
2013-03-17 01:26:00,64.0,47.0,29.95,SW,231,2.0,7.0,54,0.00,,---,0.00,0.00,VWS V14.01,2013-03-17 05:26:00,
2013-03-17 01:31:00,63.9,47.4,29.95,SW,229,4.0,6.0,55,0.00,,---,0.00,0.00,VWS V14.01,2013-03-17 05:31:00,
2013-03-17 01:36:00,63.8,47.3,29.95,SW,232,3.0,8.0,55,0.00,,---,0.00,0.00,VWS V14.01,2013-03-17 05:36:00,
2013-03-17 01:42:00,63.8,47.3,29.95,SW,231,3.0,5.0,55,0.00,,---,0.00,0.00,VWS V14.01,2013-03-17 05:42:00,
2013-03-17 01:47:00,63.7,47.7,29.95,SW,230,7.0,8.0,56,0.00,,---,0.00,0.00,VWS V14.01,2013-03-17 05:47:00,
2013-03-17 01:52:00,63.8,48.3,29.95,WSW,240,5.0,7.0,57,0.00,,---,0.00,0.00,VWS V14.01,2013-03-17 05:52:00,
2013-03-17 01:57:00,63.8,48.3,29.96,SW,236,5.0,8.0,57,0.00,,---,0.00,0.00,VWS V14.01,2013-03-17 05:57:00,
2013-03-17 02:02:00,63.8,48.3,29.96,SW,234,7.0,10.0,57,0.00,,---,0.00,0.00,VWS V14.01,2013-03-17 06:02:00,
2013-03-17 02:07:00,63.8,48.8,29.96,WSW,240,9.0,11.0,58,0.00,,---,0.00,0.00,VWS V14.01,2013-03-17 06:07:00,
2013-03-17 02:12:00,63.9,48.8,29.96,West,261,5.0,10.0,58,0.00,,---,0.00,0.00,VWS V14.01,2013-03-17 06:12:00,
2013-03-17 02:18:00,64.0,48.9,29.96,North,360,6.0,6.0,58,0.00,,---,0.00,0.00,VWS V14.01,2013-03-17 06:18:00,
2013-03-17 02:23:00,64.0,48.9,29.96,SW,236,4.0,7.0,58,0.00,,---,0.00,0.00,VWS V14.01,2013-03-17 06:23:00,
2013-03-17 02:28:00,64.0,49.4,29.96,WSW,252,3.0,6.0,59,0.00,,---,0.00,0.00,VWS V14.01,2013-03-17 06:28:00,
2013-03-17 02:33:00,64.0,49.4,29.97,SW,236,7.0,7.0,59,0.00,,---,0.00,0.00,VWS V14.01,2013-03-17 06:33:00,
2013-03-17 02:38:00,64.0,49.4,29.97,WSW,237,5.0,7.0,59,0.00,,---,0.00,0.00,VWS V14.01,2013-03-17 06:38:00,
2013-03-17 02:43:00,63.9,49.8,29.96,WSW,245,6.0,12.0,60,0.00,,---,0.00,0.00,VWS V14.01,2013-03-17 06:43:00,
2013-03-17 02:48:00,63.8,49.7,29.96,WSW,246,2.0,5.0,60,0.00,,---,0.00,0.00,VWS V14.01,2013-03-17 06:48:00,
2013-03-17 02:53:00,63.7,49.6,29.96,WSW,249,5.0,8.0,60,0.00,,---,0.00,0.00,VWS V14.01,2013-03-17 06:53:00,
2013-03-17 02:58:00,63.6,49.9,29.96,WSW,246,10.0,10.0,61,0.00,,---,0.00,0.00,VWS V14.01,2013-03-17 06:58:00,
2013-03-17 03:04:00,63.6,49.9,29.96,WSW,246,4.0,7.0,61,0.00,,---,0.00,0.00,VWS V14.01,2013-03-17 07:04:00,
2013-03-17 03:09:00,63.6,49.9,29.96,WSW,238,6.0,10.0,61,0.00,,---,0.00,0.00,VWS V14.01,2013-03-17 07:09:00,
2013-03-17 03:14:00,63.5,49.8,29.97,WSW,244,4.0,9.0,61,0.00,,---,0.00,0.00,VWS V14.01,2013-03-17 07:14:00,
2013-03-17 03:19:00,63.4,50.2,29.96,WSW,247,4.0,10.0,62,0.00,,---,0.00,0.00,VWS V14.01,2013-03-17 07:19:00,
2013-03-17 03:24:00,63.1,49.9,29.97,WSW,252,4.0,11.0,62,0.00,,---,0.00,0.00,VWS V14.01,2013-03-17 07:24:00,
2013-03-17 03:29:00,62.9,50.1,29.96,WSW,242,6.0,9.0,63,0.00,,---,0.00,0.00,VWS V14.01,2013-03-17 07:29:00,
2013-03-17 03:34:00,62.8,50.0,29.96,WSW,248,6.0,8.0,63,0.00,,---,0.00,0.00,VWS V14.01,2013-03-17 07:34:00,
2013-03-17 03:39:00,62.6,50.3,29.96,WSW,241,6.0,9.0,64,0.00,,---,0.00,0.00,VWS V14.01,2013-03-17 07:39:00,
2013-03-17 03:45:00,62.4,50.1,29.96,WSW,242,5.0,9.0,64,0.00,,---,0.00,0.00,VWS V14.01,2013-03-17 07:45:00,
2013-03-17 03:50:00,62.3,50.0,29.96,WSW,244,4.0,8.0,64,0.00,,---,0.00,0.00,VWS V14.01,2013-03-17 07:50:00,
2013-03-17 03:55:00,62.1,49.8,29.96,WSW,245,4.0,7.0,64,0.00,,---,0.00,0.00,VWS V14.01,2013-03-17 07:55:00,
2013-03-17 04:00:00,61.9,50.0,29.95,WSW,245,5.0,8.0,65,0.00,,---,0.00,0.00,VWS V14.01,2013-03-17 08:00:00,
2013-03-17 04:05:00,61.7,49.8,29.95,WSW,246,6.0,8.0,65,0.00,,---,0.00,0.00,VWS V14.01,2013-03-17 08:05:00,
2013-03-17 04:11:00,61.6,50.1,29.95,WSW,248,5.0,8.0,66,0.00,,---,0.00,0.00,VWS V14.01,2013-03-17 08:11:00,
2013-03-17 04:16:00,61.4,50.0,29.95,WSW,239,3.0,9.0,66,0.00,,---,0.00,0.00,VWS V14.01,2013-03-17 08:16:00,
2013-03-17 04:21:00,61.2,50.2,29.95,WSW,241,6.0,8.0,67,0.00,,---,0.00,0.00,VWS V14.01,2013-03-17 08:21:00,
2013-03-17 04:26:00,61.2,50.2,29.95,WSW,242,3.0,7.0,67,0.00,,---,0.00,0.00,VWS V14.01,2013-03-17 08:26:00,
2013-03-17 04:31:00,61.0,50.0,29.95,WSW,238,3.0,3.0,67,0.00,,---,0.00,0.00,VWS V14.01,2013-03-17 08:31:00,
2013-03-17 04:36:00,60.9,49.9,29.95,WSW,246,2.0,3.0,67,0.00,,---,0.00,0.00,VWS V14.01,2013-03-17 08:36:00,
2013-03-17 04:41:00,60.7,49.7,29.95,WSW,238,3.0,3.0,67,0.00,,---,0.00,0.00,VWS V14.01,2013-03-17 08:41:00,
2013-03-17 04:46:00,60.4,49.8,29.95,WSW,244,3.0,4.0,68,0.00,,---,0.00,0.00,VWS V14.01,2013-03-17 08:46:00,
2013-03-17 04:52:00,60.3,50.1,29.95,WSW,242,0.0,0.0,69,0.00,,---,0.00,0.00,VWS V14.01,2013-03-17 08:52:00,
2013-03-17 04:57:00,60.0,49.8,29.95,SW,236,3.0,3.0,69,0.00,,---,0.00,0.00,VWS V14.01,2013-03-17 08:57:00,
2013-03-17 05:02:00,59.9,50.1,29.96,SW,230,4.0,4.0,70,0.00,,---,0.00,0.00,VWS V14.01,2013-03-17 09:02:00,
2013-03-17 05:07:00,59.8,50.0,29.96,SW,233,2.0,5.0,70,0.00,,---,0.00,0.00,VWS V14.01,2013-03-17 09:07:00,
2013-03-17 05:13:00,59.6,49.8,29.96,SW,236,1.0,5.0,70,0.00,,---,0.00,0.00,VWS V14.01,2013-03-17 09:13:00,
2013-03-17 05:18:00,59.6,50.2,29.96,SW,234,3.0,6.0,71,0.00,,---,0.00,0.00,VWS V14.01,2013-03-17 09:18:00,
2013-03-17 05:23:00,59.5,50.1,29.96,WSW,238,5.0,7.0,71,0.00,,---,0.00,0.00,VWS V14.01,2013-03-17 09:23:00,
2013-03-17 05:28:00,59.4,50.4,29.96,WSW,242,4.0,7.0,72,0.00,,---,0.00,0.00,VWS V14.01,2013-03-17 09:28:00,
2013-03-17 05:33:00,59.3,50.3,29.96,SW,234,3.0,6.0,72,0.00,,---,0.00,0.00,VWS V14.01,2013-03-17 09:33:00,
2013-03-17 05:39:00,59.2,50.2,29.96,SW,229,2.0,6.0,72,0.00,,---,0.00,0.00,VWS V14.01,2013-03-17 09:39:00,
2013-03-17 05:44:00,59.1,50.1,29.96,WSW,239,5.0,5.0,72,0.00,,---,0.00,0.00,VWS V14.01,2013-03-17 09:44:00,
2013-03-17 05:49:00,59.1,50.5,29.96,SW,236,3.0,5.0,73,0.00,,---,0.00,0.00,VWS V14.01,2013-03-17 09:49:00,
2013-03-17 05:54:00,59.0,50.4,29.97,SW,227,3.0,6.0,73,0.00,,---,0.00,0.00,VWS V14.01,2013-03-17 09:54:00,
2013-03-17 05:59:00,58.9,50.3,29.97,SW,234,3.0,5.0,73,0.00,,---,0.00,0.00,VWS V14.01,2013-03-17 09:59:00,
2013-03-17 06:05:00,58.8,50.5,29.97,SW,224,4.0,6.0,74,0.00,,---,0.00,0.00,VWS V14.01,2013-03-17 10:05:00,
2013-03-17 06:10:00,58.7,50.1,29.97,SW,227,5.0,5.0,73,0.00,,---,0.00,0.00,VWS V14.01,2013-03-17 10:10:00,
2013-03-17 06:15:00,58.6,50.3,29.97,SW,227,2.0,5.0,74,0.00,,---,0.00,0.00,VWS V14.01,2013-03-17 10:15:00,
2013-03-17 06:20:00,58.5,50.2,29.97,SW,227,3.0,5.0,74,0.00,,---,0.00,0.00,VWS V14.01,2013-03-17 10:20:00,
2013-03-17 06:25:00,58.4,50.2,29.98,SW,228,2.0,4.0,74,0.00,,---,0.00,0.00,VWS V14.01,2013-03-17 10:25:00,
2013-03-17 06:30:00,58.2,50.0,29.98,SW,221,2.0,5.0,74,0.00,,---,0.00,0.00,VWS V14.01,2013-03-17 10:30:00,
2013-03-17 06:35:00,58.0,50.1,29.98,SW,223,3.0,5.0,75,0.00,,---,0.00,0.00,VWS V14.01,2013-03-17 10:35:00,
2013-03-17 06:41:00,57.8,49.9,29.99,SW,223,2.0,4.0,75,0.00,,---,0.00,0.00,VWS V14.01,2013-03-17 10:41:00,
2013-03-17 06:46:00,57.6,50.1,29.98,SW,223,4.0,4.0,76,0.00,,---,0.00,0.00,VWS V14.01,2013-03-17 10:46:00,
2013-03-17 06:51:00,57.4,49.9,29.99,SW,232,4.0,4.0,76,0.00,,---,0.00,0.00,VWS V14.01,2013-03-17 10:51:00,
2013-03-17 06:56:00,57.2,50.1,29.99,SW,227,2.0,5.0,77,0.00,,---,0.00,0.00,VWS V14.01,2013-03-17 10:56:00,
2013-03-17 07:01:00,57.1,50.0,29.99,SW,226,3.0,4.0,77,0.00,,---,0.00,0.00,VWS V14.01,2013-03-17 11:01:00,
2013-03-17 07:06:00,57.0,49.9,29.99,SW,226,0.0,4.0,77,0.00,,---,0.00,0.00,VWS V14.01,2013-03-17 11:06:00,
2013-03-17 07:11:00,56.9,49.8,29.99,SW,227,2.0,3.0,77,0.00,,---,0.00,0.00,VWS V14.01,2013-03-17 11:11:00,
2013-03-17 07:16:00,56.8,50.0,29.99,SW,226,0.0,0.0,78,0.00,,---,0.00,0.00,VWS V14.01,2013-03-17 11:16:00,
2013-03-17 07:22:00,56.6,49.8,29.99,SW,227,0.0,0.0,78,0.00,,---,0.00,0.00,VWS V14.01,2013-03-17 11:22:00,
2013-03-17 07:27:00,56.5,50.1,29.99,SW,228,0.0,2.0,79,0.00,,---,0.00,0.00,VWS V14.01,2013-03-17 11:27:00,
2013-03-17 07:32:00,56.4,49.6,29.99,SW,229,1.0,2.0,78,0.00,,---,0.00,0.00,VWS V14.01,2013-03-17 11:32:00,
2013-03-17 07:37:00,56.2,49.8,29.99,SW,216,0.0,0.0,79,0.00,,---,0.00,7.00,VWS V14.01,2013-03-17 11:37:00,
2013-03-17 07:42:00,56.0,49.6,30.00,SW,216,0.0,0.0,79,0.00,,---,0.00,12.00,VWS V14.01,2013-03-17 11:42:00,
2013-03-17 07:47:00,55.9,49.8,30.00,SW,215,2.0,3.0,80,0.00,,---,0.00,18.00,VWS V14.01,2013-03-17 11:47:00,
2013-03-17 07:52:00,55.7,49.6,30.00,SSW,198,0.0,0.0,80,0.00,,---,0.00,19.00,VWS V14.01,2013-03-17 11:52:00,
2013-03-17 07:57:00,55.6,49.5,30.00,SSW,199,3.0,3.0,80,0.00,,---,0.00,21.00,VWS V14.01,2013-03-17 11:57:00,
2013-03-17 08:03:00,55.6,49.9,30.00,SSW,202,2.0,3.0,81,0.00,,---,0.00,23.00,VWS V14.01,2013-03-17 12:03:00,
2013-03-17 08:08:00,55.6,49.9,30.00,SSW,204,1.0,1.0,81,0.00,,---,0.00,25.00,VWS V14.01,2013-03-17 12:08:00,
2013-03-17 08:13:00,55.7,50.0,30.01,SSW,210,1.0,2.0,81,0.00,,---,0.00,28.00,VWS V14.01,2013-03-17 12:13:00,
2013-03-17 08:18:00,55.9,50.5,30.01,SSW,211,0.0,3.0,82,0.00,,---,0.00,32.00,VWS V14.01,2013-03-17 12:18:00,
2013-03-17 08:23:00,56.0,50.6,30.01,SSW,212,0.0,0.0,82,0.00,,---,0.00,35.00,VWS V14.01,2013-03-17 12:23:00,
2013-03-17 08:28:00,56.3,50.9,30.00,SSW,212,0.0,0.0,82,0.00,,---,0.00,47.00,VWS V14.01,2013-03-17 12:28:00,
2013-03-17 08:33:00,56.6,51.2,30.00,SSW,213,0.0,1.0,82,0.00,,---,0.00,70.00,VWS V14.01,2013-03-17 12:33:00,
2013-03-17 08:38:00,56.9,51.5,30.01,SW,223,4.0,4.0,82,0.00,,---,0.00,93.00,VWS V14.01,2013-03-17 12:38:00,
2013-03-17 08:43:00,57.3,51.5,30.01,SW,231,0.0,7.0,81,0.00,,---,0.00,116.00,VWS V14.01,2013-03-17 12:43:00,
2013-03-17 08:49:00,57.8,52.0,30.01,SW,236,3.0,8.0,81,0.00,,---,0.00,113.00,VWS V14.01,2013-03-17 12:49:00,
2013-03-17 08:54:00,58.3,52.2,30.01,WSW,242,0.0,7.0,80,0.00,,---,0.00,151.00,VWS V14.01,2013-03-17 12:54:00,
2013-03-17 08:59:00,58.9,52.8,30.01,WSW,238,6.0,10.0,80,0.00,,---,0.00,188.00,VWS V14.01,2013-03-17 12:59:00,
2013-03-17 09:04:00,59.4,52.5,30.01,WSW,249,7.0,9.0,78,0.00,,---,0.00,209.00,VWS V14.01,2013-03-17 13:04:00,
2013-03-17 09:09:00,60.0,53.1,30.01,SW,232,11.0,14.0,78,0.00,,---,0.00,230.00,VWS V14.01,2013-03-17 13:09:00,
2013-03-17 09:14:00,60.5,53.3,30.01,WSW,242,8.0,14.0,77,0.00,,---,0.00,248.00,VWS V14.01,2013-03-17 13:14:00,
2013-03-17 09:19:00,61.0,53.4,30.01,WSW,241,8.0,14.0,76,0.00,,---,0.00,264.00,VWS V14.01,2013-03-17 13:19:00,
2013-03-17 09:25:00,61.6,53.6,30.01,West,268,11.0,13.0,75,0.00,,---,0.00,279.00,VWS V14.01,2013-03-17 13:25:00,
2013-03-17 09:30:00,62.0,53.6,30.02,WSW,242,9.0,13.0,74,0.00,,---,0.00,294.00,VWS V14.01,2013-03-17 13:30:00,
2013-03-17 09:35:00,62.3,53.9,30.02,WSW,245,7.0,16.0,74,0.00,,---,0.00,309.00,VWS V14.01,2013-03-17 13:35:00,
2013-03-17 09:40:00,62.7,53.9,30.02,SW,231,9.0,14.0,73,0.00,,---,0.00,323.00,VWS V14.01,2013-03-17 13:40:00,
2013-03-17 09:45:00,63.2,54.4,30.02,WSW,250,14.0,14.0,73,0.00,,---,0.00,341.00,VWS V14.01,2013-03-17 13:45:00,
2013-03-17 09:50:00,63.5,54.3,30.02,WSW,257,9.0,13.0,72,0.00,,---,0.00,355.00,VWS V14.01,2013-03-17 13:50:00,
2013-03-17 09:55:00,63.8,54.2,30.02,West,263,8.0,18.0,71,0.00,,---,0.00,369.00,VWS V14.01,2013-03-17 13:55:00,
2013-03-17 10:01:00,64.2,54.6,30.02,WSW,237,8.0,13.0,71,0.00,,---,0.00,380.00,VWS V14.01,2013-03-17 14:01:00,
2013-03-17 10:06:00,64.7,54.7,30.02,West,259,5.0,15.0,70,0.00,,---,0.00,388.00,VWS V14.01,2013-03-17 14:06:00,
2013-03-17 10:11:00,65.2,55.2,30.02,WSW,250,8.0,11.0,70,0.00,,---,0.00,397.00,VWS V14.01,2013-03-17 14:11:00,
2013-03-17 10:16:00,65.7,55.3,30.02,WSW,243,16.0,17.0,69,0.00,,---,0.00,413.00,VWS V14.01,2013-03-17 14:16:00,
2013-03-17 10:21:00,65.9,54.7,30.02,WSW,248,6.0,6.0,67,0.00,,---,0.00,425.00,VWS V14.01,2013-03-17 14:21:00,
2013-03-17 10:26:00,66.2,54.5,30.01,WSW,250,14.0,14.0,66,0.00,,---,0.00,439.00,VWS V14.01,2013-03-17 14:26:00,
2013-03-17 10:31:00,66.7,55.0,30.02,WSW,246,11.0,15.0,66,0.00,,---,0.00,413.00,VWS V14.01,2013-03-17 14:31:00,
2013-03-17 10:36:00,67.0,55.3,30.01,WSW,258,9.0,11.0,66,0.00,,---,0.00,462.00,VWS V14.01,2013-03-17 14:36:00,
2013-03-17 10:42:00,67.5,55.3,30.01,WNW,294,11.0,11.0,65,0.00,,---,0.00,327.00,VWS V14.01,2013-03-17 14:42:00,
2013-03-17 10:47:00,67.6,55.4,30.01,WSW,248,8.0,11.0,65,0.00,,---,0.00,272.00,VWS V14.01,2013-03-17 14:47:00,
2013-03-17 10:52:00,67.6,55.0,30.01,West,272,12.0,12.0,64,0.00,,---,0.00,283.00,VWS V14.01,2013-03-17 14:52:00,
2013-03-17 10:57:00,67.4,54.4,30.01,West,279,7.0,13.0,63,0.00,,---,0.00,397.00,VWS V14.01,2013-03-17 14:57:00,
2013-03-17 11:02:00,67.6,55.0,30.01,WSW,252,13.0,13.0,64,0.00,,---,0.00,490.00,VWS V14.01,2013-03-17 15:02:00,
2013-03-17 11:07:00,68.2,54.7,30.01,West,279,8.0,15.0,62,0.00,,---,0.00,540.00,VWS V14.01,2013-03-17 15:07:00,
2013-03-17 11:12:00,68.5,55.0,30.01,West,261,8.0,14.0,62,0.00,,---,0.00,508.00,VWS V14.01,2013-03-17 15:12:00,
2013-03-17 11:17:00,68.8,55.3,30.01,West,259,10.0,13.0,62,0.00,,---,0.00,624.00,VWS V14.01,2013-03-17 15:17:00,
2013-03-17 11:22:00,69.3,54.8,30.01,WSW,252,6.0,11.0,60,0.00,,---,0.00,580.00,VWS V14.01,2013-03-17 15:22:00,
2013-03-17 11:28:00,69.6,54.7,30.01,West,269,13.0,16.0,59,0.00,,---,0.00,663.00,VWS V14.01,2013-03-17 15:28:00,
2013-03-17 11:33:00,69.8,54.8,30.01,West,265,9.0,13.0,59,0.00,,---,0.00,664.00,VWS V14.01,2013-03-17 15:33:00,
2013-03-17 11:38:00,70.1,55.1,30.00,West,263,11.0,13.0,59,0.00,,---,0.00,705.00,VWS V14.01,2013-03-17 15:38:00,
2013-03-17 11:43:00,70.4,54.9,30.01,WNW,284,10.0,13.0,58,0.00,,---,0.00,717.00,VWS V14.01,2013-03-17 15:43:00,
2013-03-17 11:48:00,70.8,54.8,30.01,West,261,11.0,16.0,57,0.00,,---,0.00,680.00,VWS V14.01,2013-03-17 15:48:00,
2013-03-17 11:53:00,71.0,55.0,30.01,West,266,5.0,12.0,57,0.00,,---,0.00,708.00,VWS V14.01,2013-03-17 15:53:00,
2013-03-17 11:58:00,71.5,55.0,30.00,WSW,257,7.0,13.0,56,0.00,,---,0.00,689.00,VWS V14.01,2013-03-17 15:58:00,
2013-03-17 12:03:00,71.7,55.2,30.00,West,275,8.0,10.0,56,0.00,,---,0.00,770.00,VWS V14.01,2013-03-17 16:03:00,
2013-03-17 12:08:00,72.0,55.0,30.00,SW,219,12.0,14.0,55,0.00,,---,0.00,700.00,VWS V14.01,2013-03-17 16:08:00,
2013-03-17 12:14:00,72.5,55.4,30.00,WSW,241,10.0,15.0,55,0.00,,---,0.00,700.00,VWS V14.01,2013-03-17 16:14:00,
2013-03-17 12:19:00,72.9,55.8,29.99,WSW,247,8.0,14.0,55,0.00,,---,0.00,819.00,VWS V14.01,2013-03-17 16:19:00,
2013-03-17 12:24:00,72.9,54.8,30.00,WSW,250,9.0,12.0,53,0.00,,---,0.00,802.00,VWS V14.01,2013-03-17 16:24:00,
2013-03-17 12:29:00,72.9,55.3,29.99,West,277,7.0,10.0,54,0.00,,---,0.00,680.00,VWS V14.01,2013-03-17 16:29:00,
2013-03-17 12:34:00,73.0,55.4,29.99,SW,220,11.0,13.0,54,0.00,,---,0.00,642.00,VWS V14.01,2013-03-17 16:34:00,
2013-03-17 12:39:00,73.4,55.2,29.99,West,265,9.0,13.0,53,0.00,,---,0.00,719.00,VWS V14.01,2013-03-17 16:39:00,
2013-03-17 12:44:00,73.3,55.2,30.00,WSW,242,6.0,17.0,53,0.00,,---,0.00,737.00,VWS V14.01,2013-03-17 16:44:00,
2013-03-17 12:50:00,73.1,54.5,30.00,West,267,6.0,8.0,52,0.00,,---,0.00,387.00,VWS V14.01,2013-03-17 16:50:00,
2013-03-17 12:55:00,72.9,55.3,30.00,WSW,252,8.0,14.0,54,0.00,,---,0.00,782.00,VWS V14.01,2013-03-17 16:55:00,
2013-03-17 13:00:00,73.0,54.9,30.00,West,270,10.0,12.0,53,0.00,,---,0.00,570.00,VWS V14.01,2013-03-17 17:00:00,
2013-03-17 13:05:00,73.1,55.5,29.99,West,274,7.0,8.0,54,0.00,,---,0.00,881.00,VWS V14.01,2013-03-17 17:05:00,
2013-03-17 13:10:00,73.7,56.5,29.98,SW,232,8.0,13.0,55,0.00,,---,0.00,861.00,VWS V14.01,2013-03-17 17:10:00,
2013-03-17 13:15:00,74.4,55.7,29.97,South,174,0.0,10.0,52,0.00,,---,0.00,1074.00,VWS V14.01,2013-03-17 17:15:00,
2013-03-17 13:21:00,74.7,55.4,29.97,West,259,10.0,14.0,51,0.00,,---,0.00,308.00,VWS V14.01,2013-03-17 17:21:00,
2013-03-17 13:26:00,74.3,54.5,29.97,WSW,251,7.0,14.0,50,0.00,,---,0.00,654.00,VWS V14.01,2013-03-17 17:26:00,
2013-03-17 13:31:00,74.2,54.4,29.97,West,273,11.0,15.0,50,0.00,,---,0.00,591.00,VWS V14.01,2013-03-17 17:31:00,
2013-03-17 13:36:00,74.1,54.3,29.97,WSW,257,7.0,7.0,50,0.00,,---,0.00,283.00,VWS V14.01,2013-03-17 17:36:00,
2013-03-17 13:42:00,74.3,54.5,29.97,SW,225,5.0,8.0,50,0.00,,---,0.00,1004.00,VWS V14.01,2013-03-17 17:42:00,
2013-03-17 13:47:00,74.2,54.4,29.96,SW,232,7.0,11.0,50,0.00,,---,0.00,274.00,VWS V14.01,2013-03-17 17:47:00,
2013-03-17 13:52:00,74.1,54.3,29.96,SW,230,5.0,8.0,50,0.00,,---,0.00,944.00,VWS V14.01,2013-03-17 17:52:00,
2013-03-17 13:57:00,74.1,54.3,29.96,WSW,245,6.0,6.0,50,0.00,,---,0.00,304.00,VWS V14.01,2013-03-17 17:57:00,
2013-03-17 14:02:00,74.8,54.9,29.95,SW,224,13.0,13.0,50,0.00,,---,0.00,997.00,VWS V14.01,2013-03-17 18:02:00,
2013-03-17 14:07:00,74.9,54.5,29.95,SSW,200,10.0,11.0,49,0.00,,---,0.00,313.00,VWS V14.01,2013-03-17 18:07:00,
2013-03-17 14:12:00,75.1,53.5,29.95,SSW,198,10.0,13.0,47,0.00,,---,0.00,939.00,VWS V14.01,2013-03-17 18:12:00,
2013-03-17 14:18:00,75.6,54.5,29.95,SSW,211,10.0,14.0,48,0.00,,---,0.00,367.00,VWS V14.01,2013-03-17 18:18:00,
2013-03-17 14:23:00,76.0,54.3,29.95,WSW,248,14.0,14.0,47,0.00,,---,0.00,1030.00,VWS V14.01,2013-03-17 18:23:00,
2013-03-17 14:28:00,76.1,56.1,29.95,WSW,237,11.0,11.0,50,0.00,,---,0.00,949.00,VWS V14.01,2013-03-17 18:28:00,
2013-03-17 14:33:00,76.8,53.9,29.95,SW,228,8.0,15.0,45,0.00,,---,0.00,791.00,VWS V14.01,2013-03-17 18:33:00,
2013-03-17 14:38:00,76.8,53.9,29.94,SW,236,7.0,15.0,45,0.00,,---,0.00,439.00,VWS V14.01,2013-03-17 18:38:00,
2013-03-17 14:43:00,76.7,53.2,29.94,SW,233,13.0,14.0,44,0.00,,---,0.00,483.00,VWS V14.01,2013-03-17 18:43:00,
2013-03-17 14:48:00,76.3,52.8,29.94,WSW,257,8.0,13.0,44,0.00,,---,0.00,770.00,VWS V14.01,2013-03-17 18:48:00,
2013-03-17 14:54:00,76.1,52.6,29.94,SW,219,9.0,11.0,44,0.00,,---,0.00,779.00,VWS V14.01,2013-03-17 18:54:00,
2013-03-17 14:59:00,76.4,53.5,29.94,SW,234,14.0,18.0,45,0.00,,---,0.00,485.00,VWS V14.01,2013-03-17 18:59:00,
2013-03-17 15:04:00,76.2,53.3,29.94,SSW,205,7.0,16.0,45,0.00,,---,0.00,425.00,VWS V14.01,2013-03-17 19:04:00,
2013-03-17 15:09:00,75.9,53.1,29.93,WSW,239,9.0,16.0,45,0.00,,---,0.00,657.00,VWS V14.01,2013-03-17 19:09:00,
2013-03-17 15:14:00,75.9,53.1,29.93,SSW,211,13.0,17.0,45,0.00,,---,0.00,599.00,VWS V14.01,2013-03-17 19:14:00,
2013-03-17 15:19:00,75.8,53.0,29.92,West,263,12.0,16.0,45,0.00,,---,0.00,378.00,VWS V14.01,2013-03-17 19:19:00,
2013-03-17 15:25:00,75.4,52.6,29.92,SW,235,10.0,19.0,45,0.00,,---,0.00,427.00,VWS V14.01,2013-03-17 19:25:00,
2013-03-17 15:30:00,75.1,51.7,29.92,SSW,212,12.0,15.0,44,0.00,,---,0.00,454.00,VWS V14.01,2013-03-17 19:30:00,
2013-03-17 15:35:00,75.2,51.8,29.93,SW,234,12.0,18.0,44,0.00,,---,0.00,821.00,VWS V14.01,2013-03-17 19:35:00,
2013-03-17 15:40:00,75.7,52.3,29.93,WSW,247,8.0,16.0,44,0.00,,---,0.00,390.00,VWS V14.01,2013-03-17 19:40:00,
2013-03-17 15:45:00,75.6,52.2,29.93,SW,235,15.0,16.0,44,0.00,,---,0.00,355.00,VWS V14.01,2013-03-17 19:45:00,
2013-03-17 15:50:00,75.2,51.2,29.93,WSW,256,7.0,15.0,43,0.00,,---,0.00,330.00,VWS V14.01,2013-03-17 19:50:00,
2013-03-17 15:55:00,74.9,52.2,29.93,SSW,211,14.0,17.0,45,0.00,,---,0.00,376.00,VWS V14.01,2013-03-17 19:55:00,
2013-03-17 16:00:00,74.9,52.2,29.93,WSW,241,7.0,18.0,45,0.00,,---,0.00,345.00,VWS V14.01,2013-03-17 20:00:00,
2013-03-17 16:05:00,74.7,52.0,29.93,SW,236,8.0,15.0,45,0.00,,---,0.00,322.00,VWS V14.01,2013-03-17 20:05:00,
2013-03-17 16:11:00,74.7,53.2,29.92,WSW,255,8.0,10.0,47,0.00,,---,0.00,297.00,VWS V14.01,2013-03-17 20:11:00,
2013-03-17 16:17:00,74.6,53.1,29.93,SW,220,13.0,13.0,47,0.00,,---,0.00,229.00,VWS V14.01,2013-03-17 20:17:00,
2013-03-17 16:22:00,74.4,52.3,29.92,SW,230,11.0,11.0,46,0.00,,---,0.00,230.00,VWS V14.01,2013-03-17 20:22:00,
2013-03-17 16:27:00,74.2,52.1,29.92,SW,221,8.0,9.0,46,0.00,,---,0.00,186.00,VWS V14.01,2013-03-17 20:27:00,
2013-03-17 16:32:00,74.1,51.4,29.92,WSW,239,11.0,14.0,45,0.00,,---,0.00,211.00,VWS V14.01,2013-03-17 20:32:00,
2013-03-17 16:37:00,74.0,51.3,29.92,SW,224,10.0,12.0,45,0.00,,---,0.00,272.00,VWS V14.01,2013-03-17 20:37:00,
2013-03-17 16:42:00,73.9,51.8,29.92,WSW,252,8.0,8.0,46,0.00,,---,0.00,383.00,VWS V14.01,2013-03-17 20:42:00,
2013-03-17 16:47:00,74.1,52.0,29.93,WSW,257,12.0,12.0,46,0.00,,---,0.00,276.00,VWS V14.01,2013-03-17 20:47:00,
2013-03-17 16:52:00,74.1,52.6,29.93,SW,227,7.0,7.0,47,0.00,,---,0.00,204.00,VWS V14.01,2013-03-17 20:52:00,
2013-03-17 16:57:00,74.1,52.6,29.93,SW,236,7.0,12.0,47,0.00,,---,0.00,209.00,VWS V14.01,2013-03-17 20:57:00,
2013-03-17 17:02:00,74.1,53.2,29.93,SW,229,7.0,12.0,48,0.00,,---,0.00,241.00,VWS V14.01,2013-03-17 21:02:00,
2013-03-17 17:07:00,74.0,52.5,29.93,SW,236,9.0,15.0,47,0.00,,---,0.00,211.00,VWS V14.01,2013-03-17 21:07:00,
2013-03-17 17:13:00,73.9,53.0,29.93,SSW,204,7.0,16.0,48,0.00,,---,0.00,171.00,VWS V14.01,2013-03-17 21:13:00,
2013-03-17 17:18:00,73.6,52.2,29.93,SSW,211,11.0,21.0,47,0.00,,---,0.00,141.00,VWS V14.01,2013-03-17 21:18:00,
2013-03-17 17:23:00,73.2,51.8,29.93,SW,236,7.0,14.0,47,0.00,,---,0.00,120.00,VWS V14.01,2013-03-17 21:23:00,
2013-03-17 17:28:00,72.9,51.5,29.93,SW,214,9.0,15.0,47,0.00,,---,0.00,111.00,VWS V14.01,2013-03-17 21:28:00,
2013-03-17 17:33:00,72.6,51.8,29.93,SW,218,8.0,11.0,48,0.00,,---,0.00,109.00,VWS V14.01,2013-03-17 21:33:00,
2013-03-17 17:38:00,72.4,52.2,29.93,SSW,209,8.0,9.0,49,0.00,,---,0.00,102.00,VWS V14.01,2013-03-17 21:38:00,
2013-03-17 17:43:00,72.2,52.0,29.93,SSW,209,4.0,14.0,49,0.00,,---,0.00,84.00,VWS V14.01,2013-03-17 21:43:00,
2013-03-17 17:49:00,72.1,51.9,29.93,SW,217,5.0,10.0,49,0.00,,---,0.00,84.00,VWS V14.01,2013-03-17 21:49:00,
2013-03-17 17:54:00,71.9,51.7,29.93,SW,236,5.0,9.0,49,0.00,,---,0.00,83.00,VWS V14.01,2013-03-17 21:54:00,
2013-03-17 17:59:00,71.7,51.5,29.93,WSW,251,8.0,8.0,49,0.00,,---,0.00,72.00,VWS V14.01,2013-03-17 21:59:00,
2013-03-17 18:04:00,71.6,51.5,29.93,SW,235,8.0,12.0,49,0.00,,---,0.00,77.00,VWS V14.01,2013-03-17 22:04:00,
2013-03-17 18:09:00,71.5,51.4,29.92,SW,232,10.0,10.0,49,0.00,,---,0.00,90.00,VWS V14.01,2013-03-17 22:09:00,
2013-03-17 18:14:00,71.4,51.3,29.93,SW,215,6.0,15.0,49,0.00,,---,0.00,67.00,VWS V14.01,2013-03-17 22:14:00,
2013-03-17 18:19:00,71.3,51.7,29.94,SW,233,6.0,10.0,50,0.00,,---,0.00,49.00,VWS V14.01,2013-03-17 22:19:00,
2013-03-17 18:25:00,71.2,52.2,29.93,SSW,200,5.0,11.0,51,0.00,,---,0.00,42.00,VWS V14.01,2013-03-17 22:25:00,
2013-03-17 18:30:00,71.0,52.0,29.94,SW,229,5.0,12.0,51,0.00,,---,0.00,40.00,VWS V14.01,2013-03-17 22:30:00,
2013-03-17 18:35:00,70.8,51.8,29.94,WSW,257,12.0,12.0,51,0.00,,---,0.00,44.00,VWS V14.01,2013-03-17 22:35:00,
2013-03-17 18:40:00,70.7,52.2,29.94,WSW,240,6.0,17.0,52,0.00,,---,0.00,46.00,VWS V14.01,2013-03-17 22:40:00,
2013-03-17 18:45:00,70.6,52.1,29.94,SW,232,4.0,14.0,52,0.00,,---,0.00,35.00,VWS V14.01,2013-03-17 22:45:00,
2013-03-17 18:50:00,70.5,52.6,29.94,SW,233,5.0,10.0,53,0.00,,---,0.00,23.00,VWS V14.01,2013-03-17 22:50:00,
2013-03-17 18:55:00,70.3,52.4,29.94,SW,229,5.0,13.0,53,0.00,,---,0.00,18.00,VWS V14.01,2013-03-17 22:55:00,
2013-03-17 19:01:00,70.1,52.2,29.94,SW,235,6.0,10.0,53,0.00,,---,0.00,14.00,VWS V14.01,2013-03-17 23:01:00,
2013-03-17 19:06:00,69.9,52.5,29.94,SW,231,6.0,6.0,54,0.00,,---,0.00,12.00,VWS V14.01,2013-03-17 23:06:00,
2013-03-17 19:12:00,69.8,52.4,29.95,SW,229,4.0,5.0,54,0.00,,---,0.00,11.00,VWS V14.01,2013-03-17 23:12:00,
2013-03-17 19:17:00,69.7,52.8,29.95,SW,236,6.0,7.0,55,0.00,,---,0.00,7.00,VWS V14.01,2013-03-17 23:17:00,
2013-03-17 19:22:00,69.5,52.6,29.95,WSW,244,6.0,6.0,55,0.00,,---,0.00,7.00,VWS V14.01,2013-03-17 23:22:00,
2013-03-17 19:27:00,69.3,53.0,29.95,SW,234,7.0,11.0,56,0.00,,---,0.00,0.00,VWS V14.01,2013-03-17 23:27:00,
2013-03-17 19:32:00,69.2,52.8,29.95,SW,229,5.0,7.0,56,0.00,,---,0.00,0.00,VWS V14.01,2013-03-17 23:32:00,
2013-03-17 19:37:00,69.1,52.8,29.96,SW,222,5.0,5.0,56,0.00,,---,0.00,0.00,VWS V14.01,2013-03-17 23:37:00,
2013-03-17 19:43:00,69.0,53.2,29.96,SW,225,4.0,8.0,57,0.00,,---,0.00,0.00,VWS V14.01,2013-03-17 23:43:00,
2013-03-17 19:48:00,68.9,53.1,29.96,SSW,206,3.0,5.0,57,0.00,,---,0.00,0.00,VWS V14.01,2013-03-17 23:48:00,
2013-03-17 19:53:00,68.7,53.3,29.97,SW,234,3.0,4.0,58,0.00,,---,0.00,0.00,VWS V14.01,2013-03-17 23:53:00,
2013-03-17 19:58:00,68.5,53.2,29.97,SW,225,5.0,5.0,58,0.00,,---,0.00,0.00,VWS V14.01,2013-03-17 23:58:00,
2013-03-17 20:03:00,68.4,53.1,29.97,SW,229,1.0,3.0,58,0.00,,---,0.00,0.00,VWS V14.01,2013-03-18 00:03:00,
2013-03-17 20:08:00,68.2,53.3,29.97,SW,228,2.0,3.0,59,0.00,,---,0.00,0.00,VWS V14.01,2013-03-18 00:08:00,
2013-03-17 20:13:00,68.0,53.2,29.97,SW,225,3.0,3.0,59,0.00,,---,0.00,0.00,VWS V14.01,2013-03-18 00:13:00,
2013-03-17 20:18:00,67.8,53.4,29.97,SSW,209,5.0,5.0,60,0.00,,---,0.00,0.00,VWS V14.01,2013-03-18 00:18:00,
2013-03-17 20:23:00,67.5,53.1,29.97,SSW,210,2.0,5.0,60,0.00,,---,0.00,0.00,VWS V14.01,2013-03-18 00:23:00,
2013-03-17 20:28:00,67.3,53.4,29.97,SSW,211,2.0,2.0,61,0.00,,---,0.00,0.00,VWS V14.01,2013-03-18 00:28:00,
2013-03-17 20:33:00,67.2,53.3,29.97,SSW,211,3.0,3.0,61,0.00,,---,0.00,0.00,VWS V14.01,2013-03-18 00:33:00,
2013-03-17 20:38:00,66.9,53.5,29.98,SSW,211,3.0,3.0,62,0.00,,---,0.00,0.00,VWS V14.01,2013-03-18 00:38:00,
2013-03-17 20:44:00,66.7,53.3,29.98,SSW,211,3.0,4.0,62,0.00,,---,0.00,0.00,VWS V14.01,2013-03-18 00:44:00,
2013-03-17 20:49:00,66.6,53.6,29.98,SSW,210,0.0,3.0,63,0.00,,---,0.00,0.00,VWS V14.01,2013-03-18 00:49:00,
2013-03-17 20:54:00,66.4,53.4,29.98,SSW,207,0.0,6.0,63,0.00,,---,0.00,0.00,VWS V14.01,2013-03-18 00:54:00,
2013-03-17 20:59:00,66.2,53.7,29.98,SSW,210,0.0,4.0,64,0.00,,---,0.00,0.00,VWS V14.01,2013-03-18 00:59:00,
2013-03-17 21:04:00,66.1,53.6,29.98,SSW,210,0.0,2.0,64,0.00,,---,0.00,0.00,VWS V14.01,2013-03-18 01:04:00,
2013-03-17 21:10:00,66.0,53.5,29.98,SSW,210,0.0,1.0,64,0.00,,---,0.00,0.00,VWS V14.01,2013-03-18 01:10:00,
2013-03-17 21:15:00,65.9,53.4,29.98,SSW,210,0.0,1.0,64,0.00,,---,0.00,0.00,VWS V14.01,2013-03-18 01:15:00,
2013-03-17 21:20:00,65.7,53.2,29.98,SSW,210,0.0,0.0,64,0.00,,---,0.00,0.00,VWS V14.01,2013-03-18 01:20:00,
2013-03-17 21:25:00,65.6,53.5,29.99,SSW,210,2.0,2.0,65,0.00,,---,0.00,0.00,VWS V14.01,2013-03-18 01:25:00,
2013-03-17 21:30:00,65.4,53.3,29.99,SSW,210,0.0,0.0,65,0.00,,---,0.00,0.00,VWS V14.01,2013-03-18 01:30:00,
2013-03-17 21:35:00,65.2,53.6,29.99,SSW,210,0.0,0.0,66,0.00,,---,0.00,0.00,VWS V14.01,2013-03-18 01:35:00,
2013-03-17 21:40:00,65.0,53.4,29.99,SSW,210,0.0,0.0,66,0.00,,---,0.00,0.00,VWS V14.01,2013-03-18 01:40:00,
2013-03-17 21:45:00,65.0,53.4,29.99,SSW,210,0.0,0.0,66,0.00,,---,0.00,0.00,VWS V14.01,2013-03-18 01:45:00,
2013-03-17 21:51:00,64.9,53.7,30.00,SSW,210,0.0,0.0,67,0.00,,---,0.00,0.00,VWS V14.01,2013-03-18 01:51:00,
2013-03-17 21:56:00,64.7,53.5,30.00,SSW,210,0.0,0.0,67,0.00,,---,0.00,0.00,VWS V14.01,2013-03-18 01:56:00,
2013-03-17 22:01:00,64.6,53.8,30.00,SSW,210,0.0,0.0,68,0.00,,---,0.00,0.00,VWS V14.01,2013-03-18 02:01:00,
2013-03-17 22:06:00,64.5,53.7,30.00,SSW,210,0.0,0.0,68,0.00,,---,0.00,0.00,VWS V14.01,2013-03-18 02:06:00,
2013-03-17 22:12:00,64.4,53.6,30.00,SSW,209,0.0,0.0,68,0.00,,---,0.00,0.00,VWS V14.01,2013-03-18 02:12:00,
2013-03-17 22:17:00,64.4,54.0,30.00,SSW,210,0.0,0.0,69,0.00,,---,0.00,0.00,VWS V14.01,2013-03-18 02:17:00,
2013-03-17 22:24:00,64.3,53.9,30.00,SSW,210,0.0,0.0,69,0.00,,---,0.00,0.00,VWS V14.01,2013-03-18 02:24:00,
2013-03-17 22:29:00,64.2,53.8,30.00,SSW,210,0.0,0.0,69,0.00,,---,0.00,0.00,VWS V14.01,2013-03-18 02:29:00,
2013-03-17 22:34:00,64.1,53.7,30.00,SSW,209,0.0,0.0,69,0.00,,---,0.00,0.00,VWS V14.01,2013-03-18 02:34:00,
2013-03-17 22:39:00,64.0,53.6,30.01,SSW,210,0.0,0.0,69,0.00,,---,0.00,0.00,VWS V14.01,2013-03-18 02:39:00,
2013-03-17 22:45:00,64.0,53.6,30.01,SSW,209,0.0,0.0,69,0.00,,---,0.00,0.00,VWS V14.01,2013-03-18 02:45:00,
2013-03-17 22:50:00,63.9,53.5,30.01,SSW,209,0.0,0.0,69,0.00,,---,0.00,0.00,VWS V14.01,2013-03-18 02:50:00,
2013-03-17 22:55:00,63.8,53.8,30.01,SSW,210,1.0,1.0,70,0.00,,---,0.00,0.00,VWS V14.01,2013-03-18 02:55:00,
2013-03-17 23:00:00,63.6,54.0,30.01,SSW,210,2.0,4.0,71,0.00,,---,0.00,0.00,VWS V14.01,2013-03-18 03:00:00,
2013-03-17 23:05:00,63.5,54.3,30.01,SSW,210,0.0,1.0,72,0.00,,---,0.00,0.00,VWS V14.01,2013-03-18 03:05:00,
2013-03-17 23:10:00,63.4,54.6,30.01,SSW,210,0.0,2.0,73,0.00,,---,0.00,0.00,VWS V14.01,2013-03-18 03:10:00,
2013-03-17 23:15:00,63.4,54.6,30.01,SSW,210,1.0,1.0,73,0.00,,---,0.00,0.00,VWS V14.01,2013-03-18 03:15:00,
2013-03-17 23:20:00,63.4,55.0,30.01,SSW,211,2.0,3.0,74,0.00,,---,0.00,0.00,VWS V14.01,2013-03-18 03:20:00,
2013-03-17 23:25:00,63.4,55.0,30.01,SSW,211,0.0,1.0,74,0.00,,---,0.00,0.00,VWS V14.01,2013-03-18 03:25:00,
2013-03-17 23:31:00,63.4,55.0,30.02,SSW,211,2.0,3.0,74,0.00,,---,0.00,0.00,VWS V14.01,2013-03-18 03:31:00,
2013-03-17 23:36:00,63.4,55.3,30.01,SSW,211,0.0,3.0,75,0.00,,---,0.00,0.00,VWS V14.01,2013-03-18 03:36:00,
2013-03-17 23:41:00,63.5,55.4,30.01,SSW,213,3.0,4.0,75,0.00,,---,0.00,0.00,VWS V14.01,2013-03-18 03:41:00,
2013-03-17 23:46:00,63.7,55.6,30.01,SW,217,3.0,4.0,75,0.00,,---,0.00,0.00,VWS V14.01,2013-03-18 03:46:00,
2013-03-17 23:51:00,63.8,55.7,30.01,SW,218,2.0,4.0,75,0.00,,---,0.00,0.00,VWS V14.01,2013-03-18 03:51:00,
2013-03-17 23:56:00,63.9,55.8,30.02,SW,219,3.0,4.0,75,0.00,,---,0.00,0.00,VWS V14.01,2013-03-18 03:56:00,